Augusto C. Sandino (Managua) International Airport
MNMG : now visible

Airfield :











YOU CAN JOIN US ON...

 
LOGIN :

Register | Disclaimer

   EN    FR    IT 

 









Legend :    VFR   Marginal VFR   IFR   Intensive IFR   Very Intensive IFR
Visi :
Ceiling :
>= 8 km
>= 3000ft
5 to 8 km
1000 to 3000 ft
1500m to 5 km
500 to 1000 ft
800 to 1500m
200 to 500 ft
< 800m
< 200 ft
Symbols :   Thunderstorms  Fog  Heavy snow  Heavy precipitations  Wind > 20 kt






- Airport Elevation : 194 ft
- IATA code : MGA


MNMG - Augusto C. Sandino (Managua) International

EXPIRED METARs :
  • 190600Z 10006KT 9999 FEW022 SCT300 25/23 Q1011 A2988 NOSIG

TAF MNMG
Valid from the 19 at 06:00 until the 20 at 06:00 UTC


190300Z 1906/2006 00000KT 9999 FEW020 SCT070
BECMG 1921/2001 10006KT 7000 -TSRA FEW019CB SCT060
MHTG FIR / North America



MET'MAP, your aeronautical weather chart ! - Copyright ORBIFLY December 2007 - Disclaimer

ORBIFLY MET'MAP TEAM :

Programming & Development : Alexandra Zaïnal
Concept & original design : Baudouin d'Aumeries
Assistance for programming : Marc-Olivier Méhu
Technical & hardware support : Manuel Goepfert

Contact : metmap@orbifly.com




SOURCES & CREDITS :

   NOAA       Earth
Advisory